Location: ?astrovice
(49.6513°N, 14.9287°E)
Time: 01:04:33
(UTC+00:00)

Cosmos 1821 Rocket - Pass Details

Date: 09 April 2020
Orbit: 945 x 1004 km, 82.9° (Epoch: 30 May)

Event Time Altitude Azimuth Distance (km) Brightness Sun altitude
Rises 20:15:49 0° 351° (N) 3,730 7.9 -22.0°
Reaches altitude 10° 20:18:22 10° 354° (N) 2,782 7.1 -22.3°
Maximum altitude 20:24:46 71° 79° (ENE) 1,060 4.0 -23.0°
Enters shadow 20:26:40 47° 147° (SSE) 1,309 4.2 -23.2°
